| time (UTC) | temp C | wind direction | speed KPH | gust KPH | rain 1hr cm | rain 24hr cm | rain mn cm | humidity % | barometer mb |
| 20260508045829 | 11 | 333 | 4.8 | 16.1 | 0.00 | 0.89 | 0.00 | 52 | 1008.7 |
| 20260508045053 | 11 | 303 | 6.4 | 16.1 | 0.00 | 0.89 | 0.00 | 52 | 1008.8 |
| 20260508044542 | 11 | 324 | 6.4 | 14.5 | 0.00 | 0.89 | 0.00 | 52 | 1008.7 |
| 20260508044027 | 11 | 315 | 3.2 | 20.9 | 0.00 | 0.89 | 0.00 | 52 | 1008.7 |
| 20260508043523 | 11 | 300 | 8.0 | 20.9 | 0.00 | 0.89 | 0.00 | 51 | 1008.6 |
| 20260508043017 | 11 | 311 | 6.4 | 14.5 | 0.00 | 0.89 | 0.00 | 52 | 1008.7 |
| 20260508042519 | 11 | 332 | 6.4 | 14.5 | 0.00 | 0.89 | 0.00 | 52 | 1008.6 |
| 20260508042011 | 11 | 334 | 6.4 | 14.5 | 0.00 | 0.89 | 0.00 | 52 | 1008.7 |
| 20260508041506 | 11 | 289 | 4.8 | 9.7 | 0.00 | 0.89 | 0.00 | 52 | 1008.8 |
| 20260508041003 | 11 | 313 | 4.8 | 14.5 | 0.00 | 0.89 | 0.00 | 51 | 1008.8 |
| 20260508040502 | 11 | 335 | 6.4 | 14.5 | 0.00 | 0.89 | 0.00 | 52 | 1008.8 |
| 20260508035956 | 11 | 314 | 4.8 | 14.5 | 0.00 | 0.89 | 0.89 | 51 | 1008.8 |
| 20260508035724 | 11 | 295 | 6.4 | 14.5 | 0.00 | 0.89 | 0.89 | 51 | 1008.8 |
| 20260508034946 | 11 | 289 | 4.8 | 12.9 | 0.00 | 0.89 | 0.89 | 50 | 1008.7 |
| 20260508034444 | 11 | 308 | 3.2 | 12.9 | 0.00 | 0.89 | 0.89 | 52 | 1008.8 |
| 20260508033939 | 11 | 288 | 3.2 | 11.3 | 0.00 | 0.89 | 0.89 | 52 | 1008.7 |
| 20260508033440 | 11 | 309 | 6.4 | 11.3 | 0.00 | 0.89 | 0.89 | 52 | 1008.7 |
| 20260508032937 | 11 | 297 | 3.2 | 9.7 | 0.00 | 0.89 | 0.89 | 52 | 1008.8 |
| 20260508032430 | 11 | 311 | 4.8 | 9.7 | 0.00 | 0.89 | 0.89 | 53 | 1008.8 |
| 20260508031930 | 11 | 283 | 3.2 | 6.4 | 0.00 | 0.89 | 0.89 | 52 | 1008.9 |
| 20260508031424 | 11 | 318 | 4.8 | 9.7 | 0.00 | 0.89 | 0.89 | 52 | 1008.9 |
| 20260508030910 | 11 | 336 | 4.8 | 9.7 | 0.00 | 0.89 | 0.89 | 51 | 1008.9 |
| 20260508030644 | 11 | 313 | 4.8 | 9.7 | 0.00 | 0.89 | 0.89 | 51 | 1008.8 |
| 20260508025908 | 11 | 316 | 3.2 | 11.3 | 0.00 | 0.89 | 0.89 | 52 | 1008.8 |
| 20260508025406 | 11 | 309 | 3.2 | 16.1 | 0.00 | 0.89 | 0.89 | 52 | 1008.7 |
| 20260508024903 | 11 | 320 | 3.2 | 16.1 | 0.00 | 0.89 | 0.89 | 53 | 1008.7 |
| 20260508024356 | 11 | 338 | 3.2 | 8.0 | 0.00 | 0.89 | 0.89 | 52 | 1008.6 |
| 20260508023851 | 11 | 292 | 3.2 | 12.9 | 0.00 | 0.89 | 0.89 | 52 | 1008.6 |
| 20260508023344 | 11 | 286 | 6.4 | 12.9 | 0.00 | 0.89 | 0.89 | 53 | 1008.6 |
| 20260508022846 | 11 | 295 | 3.2 | 9.7 | 0.00 | 0.89 | 0.89 | 54 | 1008.6 |
| 20260508022339 | 11 | 297 | 3.2 | 9.7 | 0.00 | 0.89 | 0.89 | 53 | 1008.9 |
| 20260508021842 | 11 | 317 | 3.2 | 9.7 | 0.00 | 0.89 | 0.89 | 54 | 1008.7 |
| 20260508021336 | 11 | 305 | 4.8 | 11.3 | 0.00 | 0.89 | 0.89 | 52 | 1008.8 |
| 20260508021111 | 11 | 288 | 3.2 | 11.3 | 0.00 | 0.89 | 0.89 | 52 | 1008.7 |
| 20260508020330 | 11 | 275 | 3.2 | 9.7 | 0.00 | 0.89 | 0.89 | 53 | 1008.7 |
| 20260508015823 | 11 | 302 | 6.4 | 9.7 | 0.00 | 0.89 | 0.89 | 51 | 1008.7 |
| 20260508015317 | 11 | 293 | 3.2 | 9.7 | 0.00 | 0.89 | 0.89 | 51 | 1008.7 |
| 20260508014814 | 11 | 308 | 4.8 | 9.7 | 0.00 | 0.89 | 0.89 | 52 | 1008.6 |
| 20260508014308 | 11 | 312 | 3.2 | 9.7 | 0.00 | 0.89 | 0.89 | 53 | 1008.5 |
| 20260508013802 | 11 | 296 | 3.2 | 9.7 | 0.00 | 0.89 | 0.89 | 53 | 1008.6 |
| 20260508013255 | 11 | 323 | 3.2 | 12.9 | 0.00 | 0.89 | 0.89 | 53 | 1008.4 |
| 20260508012749 | 11 | 302 | 4.8 | 14.5 | 0.00 | 0.89 | 0.89 | 51 | 1008.4 |
| 20260508012245 | 11 | 335 | 4.8 | 14.5 | 0.00 | 0.89 | 0.89 | 52 | 1008.3 |
| 20260508011740 | 11 | 307 | 3.2 | 8.0 | 0.00 | 0.89 | 0.89 | 53 | 1008.2 |
| 20260508011234 | 11 | 284 | 3.2 | 6.4 | 0.00 | 0.89 | 0.89 | 54 | 1008.2 |
| 20260508010722 | 11 | 283 | 3.2 | 9.7 | 0.00 | 0.89 | 0.89 | 52 | 1008.2 |
| 20260508010209 | 11 | 318 | 4.8 | 9.7 | 0.00 | 0.89 | 0.89 | 54 | 1008.2 |
| 20260508005930 | 11 | 302 | 3.2 | 8.0 | 0.00 | 0.89 | 0.89 | 54 | 1008.1 |
| 20260508005159 | 11 | 300 | 3.2 | 8.0 | 0.00 | 0.89 | 0.89 | 52 | 1008.0 |
| 20260508004659 | 12 | 300 | 3.2 | 8.0 | 0.00 | 0.89 | 0.89 | 52 | 1007.9 |
| 20260508004153 | 12 | 356 | 3.2 | 8.0 | 0.00 | 0.89 | 0.89 | 53 | 1007.6 |
| 20260508003652 | 12 | 11 | 3.2 | 9.7 | 0.00 | 0.91 | 0.89 | 52 | 1007.5 |
| 20260508003147 | 12 | 271 | 3.2 | 9.7 | 0.00 | 0.91 | 0.89 | 52 | 1007.5 |
| 20260508002642 | 12 | 318 | 3.2 | 8.0 | 0.00 | 0.91 | 0.89 | 51 | 1007.4 |
| 20260508002138 | 12 | 336 | 3.2 | 8.0 | 0.00 | 0.91 | 0.89 | 51 | 1007.4 |
| 20260508001622 | 12 | 328 | 1.6 | 9.7 | 0.00 | 0.91 | 0.89 | 53 | 1007.3 |
| 20260508001119 | 12 | 317 | 3.2 | 9.7 | 0.00 | 0.91 | 0.89 | 52 | 1007.3 |
| 20260508000612 | 12 | 323 | 3.2 | 11.3 | 0.00 | 0.94 | 0.89 | 53 | 1007.3 |
| 20260508000105 | 12 | 310 | 3.2 | 11.3 | 0.00 | 0.94 | 0.89 | 54 | 1007.3 |
| 20260507235602 | 12 | 330 | 3.2 | 9.7 | 0.00 | 0.94 | 0.89 | 59 | 1007.2 |
| 20260507235055 | 12 | 6 | 1.6 | 9.7 | 0.00 | 0.94 | 0.89 | 66 | 1007.2 |
| 20260507234823 | 12 | 328 | 3.2 | 9.7 | 0.00 | 0.94 | 0.89 | 65 | 1007.2 |
| 20260507234051 | 12 | 310 | 0.0 | 1.6 | 0.00 | 0.94 | 0.89 | 73 | 1007.2 |
| 20260507233544 | 12 | 310 | 0.0 | 3.2 | 0.00 | 0.94 | 0.89 | 73 | 1007.2 |
| 20260507233033 | 12 | 310 | 0.0 | 3.2 | 0.00 | 0.94 | 0.89 | 74 | 1007.0 |
| 20260507232525 | 12 | 310 | 1.6 | 6.4 | 0.00 | 0.94 | 0.89 | 74 | 1007.1 |
| 20260507232022 | 13 | 310 | 0.0 | 6.4 | 0.00 | 0.97 | 0.89 | 74 | 1007.1 |
| 20260507231541 | 13 | 173 | 1.6 | 6.4 | 0.00 | 0.99 | 0.89 | 73 | 1006.9 |
| 20260507231533 | 13 | 174 | 1.6 | 4.8 | 0.00 | 0.97 | 0.89 | 74 | 1007.0 |
| 20260507230518 | 13 | 173 | 3.2 | 6.4 | 0.00 | 0.99 | 0.89 | 73 | 1006.9 |
| 20260507225958 | 13 | 157 | 1.6 | 4.8 | 0.00 | 0.99 | 0.89 | 74 | 1006.7 |
| 20260507225452 | 13 | 159 | 1.6 | 4.8 | 0.00 | 0.99 | 0.89 | 73 | 1006.7 |
| 20260507224954 | 13 | 176 | 1.6 | 6.4 | 0.00 | 0.99 | 0.89 | 73 | 1006.7 |
| 20260507224448 | 13 | 177 | 3.2 | 6.4 | 0.00 | 0.99 | 0.89 | 73 | 1006.6 |
| 20260507223935 | 13 | 193 | 3.2 | 11.3 | 0.00 | 1.02 | 0.89 | 73 | 1006.6 |
| 20260507223431 | 13 | 149 | 1.6 | 11.3 | 0.00 | 1.02 | 0.89 | 73 | 1006.5 |
| 20260507222927 | 13 | 169 | 3.2 | 8.0 | 0.00 | 1.02 | 0.89 | 73 | 1006.6 |
| 20260507222426 | 13 | 179 | 3.2 | 9.7 | 0.00 | 1.02 | 0.89 | 73 | 1006.5 |
| 20260507221921 | 13 | 190 | 4.8 | 9.7 | 0.00 | 1.02 | 0.89 | 72 | 1006.6 |
| 20260507221650 | 13 | 138 | 6.4 | 11.3 | 0.00 | 1.02 | 0.89 | 72 | 1006.6 |
| 20260507220908 | 13 | 171 | 3.2 | 14.5 | 0.00 | 1.02 | 0.89 | 71 | 1006.5 |
| 20260507220409 | 13 | 181 | 4.8 | 14.5 | 0.00 | 1.02 | 0.89 | 71 | 1006.6 |
| 20260507215906 | 13 | 192 | 4.8 | 12.9 | 0.00 | 1.02 | 0.89 | 70 | 1006.5 |
| 20260507215405 | 13 | 144 | 4.8 | 11.3 | 0.00 | 1.02 | 0.89 | 70 | 1006.5 |
| 20260507214859 | 13 | 138 | 3.2 | 9.7 | 0.00 | 1.02 | 0.89 | 70 | 1006.6 |
| 20260507214356 | 13 | 134 | 4.8 | 9.7 | 0.00 | 1.02 | 0.89 | 70 | 1006.4 |
| 20260507213855 | 13 | 158 | 1.6 | 12.9 | 0.00 | 1.02 | 0.89 | 70 | 1006.5 |
| 20260507213350 | 13 | 192 | 4.8 | 12.9 | 0.00 | 1.02 | 0.89 | 70 | 1006.4 |
| 20260507212845 | 13 | 162 | 3.2 | 9.7 | 0.00 | 1.02 | 0.89 | 69 | 1006.5 |
| 20260507212620 | 13 | 161 | 3.2 | 12.9 | 0.00 | 1.02 | 0.89 | 68 | 1006.4 |
| 20260507212616 | 13 | 94 | 4.8 | 9.7 | 0.00 | 1.02 | 0.89 | 69 | 1006.4 |
| 20260507211558 | 13 | 205 | 4.8 | 12.9 | 0.00 | 1.02 | 0.89 | 66 | 1006.4 |
| 20260507210828 | 13 | 175 | 6.4 | 14.5 | 0.00 | 1.02 | 0.89 | 65 | 1006.4 |
| 20260507210824 | 13 | 137 | 3.2 | 14.5 | 0.00 | 1.02 | 0.89 | 66 | 1006.4 |
| 20260507205817 | 13 | 178 | 6.4 | 12.9 | 0.00 | 1.02 | 0.89 | 64 | 1006.4 |
| 20260507205309 | 13 | 115 | 6.4 | 16.1 | 0.00 | 1.02 | 0.89 | 66 | 1006.4 |
| 20260507204804 | 13 | 195 | 6.4 | 16.1 | 0.00 | 1.02 | 0.89 | 66 | 1006.3 |
| 20260507204257 | 13 | 220 | 3.2 | 14.5 | 0.00 | 1.02 | 0.89 | 67 | 1006.2 |
| 20260507203755 | 13 | 193 | 4.8 | 12.9 | 0.00 | 1.02 | 0.89 | 68 | 1006.1 |
| 20260507203246 | 13 | 113 | 3.2 | 12.9 | 0.00 | 1.02 | 0.89 | 67 | 1006.2 |
| 20260507202742 | 13 | 172 | 6.4 | 16.1 | 0.00 | 1.02 | 0.89 | 67 | 1006.3 |
| 20260507202235 | 13 | 136 | 6.4 | 16.1 | 0.00 | 1.02 | 0.89 | 68 | 1006.3 |
| 20260507201730 | 13 | 138 | 4.8 | 16.1 | 0.00 | 1.02 | 0.89 | 70 | 1006.2 |
| 20260507201223 | 13 | 183 | 8.0 | 16.1 | 0.00 | 1.02 | 0.89 | 69 | 1006.2 |
| 20260507200720 | 13 | 110 | 4.8 | 17.7 | 0.00 | 1.02 | 0.89 | 68 | 1006.2 |
| 20260507200221 | 13 | 165 | 4.8 | 17.7 | 0.00 | 1.02 | 0.89 | 68 | 1006.2 |
| 20260507195713 | 13 | 172 | 9.7 | 17.7 | 0.00 | 1.02 | 0.89 | 68 | 1006.4 |
| 20260507195214 | 13 | 204 | 4.8 | 17.7 | 0.00 | 1.02 | 0.89 | 69 | 1006.3 |
| 20260507194711 | 13 | 152 | 9.7 | 17.7 | 0.00 | 1.02 | 0.89 | 67 | 1006.4 |
| 20260507194210 | 13 | 151 | 4.8 | 16.1 | 0.00 | 1.02 | 0.89 | 66 | 1006.5 |
| 20260507193706 | 13 | 154 | 6.4 | 16.1 | 0.00 | 1.02 | 0.89 | 66 | 1006.4 |
| 20260507193203 | 13 | 150 | 8.0 | 19.3 | 0.00 | 1.02 | 0.89 | 66 | 1006.5 |
| 20260507192657 | 13 | 167 | 8.0 | 19.3 | 0.00 | 1.02 | 0.89 | 67 | 1006.6 |
| 20260507192153 | 13 | 203 | 6.4 | 14.5 | 0.00 | 1.02 | 0.89 | 69 | 1006.7 |
| 20260507191646 | 13 | 280 | 6.4 | 12.9 | 0.00 | 1.02 | 0.89 | 71 | 1006.8 |
| 20260507191141 | 13 | 212 | 3.2 | 16.1 | 0.00 | 1.02 | 0.89 | 71 | 1006.9 |
| 20260507190932 | 13 | 198 | 4.8 | 16.1 | 0.00 | 1.02 | 0.89 | 70 | 1006.8 |
| 20260507190136 | 13 | 185 | 9.7 | 17.7 | 0.00 | 1.02 | 0.89 | 69 | 1006.9 |
| 20260507185638 | 13 | 182 | 8.0 | 17.7 | 0.00 | 1.02 | 0.89 | 68 | 1007.1 |
| 20260507185133 | 13 | 211 | 6.4 | 16.1 | 0.00 | 1.02 | 0.89 | 69 | 1006.9 |
| 20260507184906 | 13 | 165 | 3.2 | 11.3 | 0.00 | 1.02 | 0.89 | 71 | 1007.2 |
| 20260507184126 | 13 | 164 | 4.8 | 12.9 | 0.00 | 1.02 | 0.89 | 72 | 1007.1 |
| 20260507183622 | 13 | 155 | 3.2 | 12.9 | 0.00 | 1.02 | 0.89 | 72 | 1007.1 |
| 20260507183107 | 13 | 113 | 3.2 | 11.3 | 0.00 | 1.02 | 0.89 | 73 | 1007.1 |
| 20260507182605 | 13 | 52 | 3.2 | 11.3 | 0.00 | 1.02 | 0.89 | 73 | 1007.0 |
| 20260507182104 | 13 | 203 | 4.8 | 12.9 | 0.00 | 1.02 | 0.89 | 73 | 1007.1 |
| 20260507181558 | 13 | 160 | 3.2 | 12.9 | 0.00 | 1.02 | 0.89 | 73 | 1007.1 |
| 20260507181051 | 13 | 151 | 6.4 | 11.3 | 0.00 | 1.02 | 0.89 | 74 | 1007.1 |
| 20260507180551 | 13 | 184 | 3.2 | 9.7 | 0.00 | 1.02 | 0.89 | 74 | 1007.2 |
| 20260507180045 | 12 | 139 | 3.2 | 11.3 | 0.00 | 1.02 | 0.89 | 74 | 1007.1 |
| 20260507175548 | 12 | 172 | 4.8 | 11.3 | 0.00 | 1.02 | 0.89 | 74 | 1007.0 |
| 20260507175318 | 13 | 169 | 3.2 | 9.7 | 0.00 | 1.02 | 0.89 | 72 | 1007.2 |
| 20260507175314 | 12 | 212 | 3.2 | 11.3 | 0.00 | 1.02 | 0.89 | 73 | 1007.1 |
| 20260507174032 | 13 | 110 | 6.4 | 9.7 | 0.00 | 1.02 | 0.89 | 71 | 1007.2 |
| 20260507173532 | 13 | 180 | 4.8 | 11.3 | 0.00 | 1.02 | 0.89 | 73 | 1007.1 |
| 20260507173019 | 13 | 182 | 3.2 | 12.9 | 0.00 | 1.02 | 0.89 | 72 | 1007.1 |
| 20260507172518 | 13 | 110 | 6.4 | 12.9 | 0.00 | 1.02 | 0.89 | 73 | 1007.3 |
| 20260507172013 | 13 | 158 | 3.2 | 8.0 | 0.00 | 1.02 | 0.89 | 72 | 1007.3 |
| 20260507171514 | 12 | 142 | 4.8 | 8.0 | 0.00 | 1.02 | 0.89 | 72 | 1007.5 |
| 20260507171009 | 12 | 137 | 3.2 | 8.0 | 0.00 | 1.02 | 0.89 | 72 | 1007.6 |
| 20260507170508 | 13 | 130 | 3.2 | 8.0 | 0.00 | 1.02 | 0.89 | 70 | 1007.6 |
| 20260507170005 | 13 | 126 | 3.2 | 6.4 | 0.00 | 1.02 | 0.89 | 69 | 1007.7 |
| 20260507165730 | 13 | 114 | 3.2 | 6.4 | 0.00 | 1.02 | 0.89 | 67 | 1007.7 |
| 20260507164946 | 13 | 126 | 3.2 | 8.0 | 0.00 | 1.02 | 0.89 | 66 | 1007.7 |
| 20260507164445 | 14 | 122 | 3.2 | 8.0 | 0.00 | 1.02 | 0.89 | 66 | 1007.7 |
| 20260507163940 | 14 | 148 | 3.2 | 8.0 | 0.00 | 1.02 | 0.89 | 70 | 1007.9 |
| 20260507163434 | 14 | 139 | 1.6 | 8.0 | 0.00 | 1.02 | 0.89 | 69 | 1007.9 |
| 20260507162932 | 14 | 110 | 4.8 | 8.0 | 0.00 | 1.02 | 0.89 | 67 | 1007.9 |
| 20260507162425 | 13 | 105 | 3.2 | 8.0 | 0.00 | 1.02 | 0.89 | 70 | 1007.9 |
| 20260507161930 | 13 | 84 | 3.2 | 8.0 | 0.00 | 1.02 | 0.89 | 71 | 1008.2 |
| 20260507161926 | 13 | 85 | 4.8 | 8.0 | 0.00 | 1.02 | 0.89 | 68 | 1008.0 |
| 20260507160912 | 13 | 101 | 3.2 | 11.3 | 0.00 | 1.02 | 0.89 | 69 | 1008.2 |
| 20260507160407 | 13 | 77 | 6.4 | 11.3 | 0.00 | 1.02 | 0.89 | 69 | 1008.2 |
| 20260507155900 | 13 | 51 | 3.2 | 9.7 | 0.00 | 1.02 | 0.89 | 69 | 1008.3 |
| 20260507155401 | 13 | 63 | 4.8 | 14.5 | 0.00 | 1.02 | 0.89 | 66 | 1008.5 |
| 20260507154857 | 13 | 76 | 9.7 | 19.3 | 0.00 | 1.02 | 0.89 | 66 | 1008.5 |
| 20260507154358 | 13 | 71 | 9.7 | 19.3 | 0.00 | 1.02 | 0.89 | 66 | 1008.4 |
| 20260507153851 | 14 | 83 | 9.7 | 16.1 | 0.00 | 1.02 | 0.89 | 65 | 1008.5 |
| 20260507153351 | 14 | 61 | 6.4 | 16.1 | 0.00 | 1.02 | 0.89 | 65 | 1008.5 |
| 20260507152847 | 14 | 55 | 8.0 | 14.5 | 0.00 | 1.02 | 0.89 | 62 | 1008.6 |
| 20260507152624 | 15 | 45 | 6.4 | 11.3 | 0.00 | 1.02 | 0.89 | 64 | 1008.6 |
| 20260507152119 | 15 | 68 | 3.2 | 16.1 | 0.00 | 1.02 | 0.89 | 64 | 1008.6 |
| 20260507151335 | 15 | 72 | 8.0 | 16.1 | 0.00 | 1.02 | 0.89 | 61 | 1008.8 |
| 20260507150829 | 15 | 74 | 9.7 | 16.1 | 0.00 | 1.02 | 0.89 | 62 | 1009.0 |
| 20260507150322 | 15 | 75 | 9.7 | 16.1 | 0.00 | 1.02 | 0.89 | 61 | 1008.9 |
| 20260507145818 | 15 | 29 | 8.0 | 16.1 | 0.00 | 1.02 | 0.89 | 63 | 1008.9 |
| 20260507145319 | 15 | 50 | 9.7 | 16.1 | 0.00 | 1.02 | 0.89 | 60 | 1008.8 |
| 20260507144827 | 15 | 359 | 9.7 | 14.5 | 0.00 | 1.02 | 0.89 | 60 | 1008.9 |
| 20260507144822 | 15 | 342 | 9.7 | 14.5 | 0.00 | 1.02 | 0.89 | 57 | 1008.8 |
| 20260507143809 | 15 | 343 | 4.8 | 16.1 | 0.00 | 1.02 | 0.89 | 60 | 1008.8 |
| 20260507143304 | 14 | 1 | 6.4 | 16.1 | 0.00 | 1.02 | 0.89 | 62 | 1008.9 |
| 20260507142756 | 14 | 37 | 4.8 | 19.3 | 0.00 | 1.02 | 0.89 | 66 | 1008.9 |
| 20260507142528 | 14 | 72 | 9.7 | 19.3 | 0.00 | 1.02 | 0.89 | 62 | 1009.1 |
| 20260507141747 | 14 | 33 | 8.0 | 17.7 | 0.00 | 1.02 | 0.89 | 63 | 1009.1 |
| 20260507141519 | 14 | 30 | 4.8 | 12.9 | 0.00 | 1.02 | 0.89 | 68 | 1009.2 |
| 20260507140740 | 13 | 359 | 8.0 | 17.7 | 0.00 | 1.02 | 0.89 | 66 | 1009.0 |
| 20260507140242 | 13 | 346 | 6.4 | 17.7 | 0.00 | 1.02 | 0.89 | 68 | 1009.0 |
| 20260507135737 | 13 | 41 | 8.0 | 16.1 | 0.00 | 1.02 | 0.89 | 68 | 1009.0 |
| 20260507135232 | 13 | 65 | 6.4 | 16.1 | 0.00 | 1.02 | 0.89 | 71 | 1009.1 |
| 20260507134723 | 13 | 357 | 6.4 | 17.7 | 0.00 | 1.02 | 0.89 | 73 | 1009.2 |
| 20260507134219 | 13 | 317 | 8.0 | 17.7 | 0.00 | 1.02 | 0.89 | 74 | 1009.1 |
| 20260507133946 | 12 | 326 | 6.4 | 16.1 | 0.00 | 1.02 | 0.89 | 77 | 1009.0 |
| 20260507133208 | 12 | 1 | 6.4 | 16.1 | 0.00 | 1.02 | 0.89 | 79 | 1009.0 |
| 20260507132703 | 12 | 41 | 4.8 | 16.1 | 0.00 | 1.02 | 0.89 | 81 | 1009.0 |
| 20260507132159 | 12 | 323 | 9.7 | 16.1 | 0.00 | 1.02 | 0.89 | 84 | 1009.2 |
| 20260507131928 | 11 | 302 | 6.4 | 16.1 | 0.00 | 1.02 | 0.89 | 87 | 1009.2 |
| 20260507131201 | 11 | 11 | 3.2 | 11.3 | 0.00 | 1.02 | 0.89 | 89 | 1009.1 |
| 20260507131157 | 11 | 37 | 6.4 | 12.9 | 0.00 | 1.02 | 0.89 | 88 | 1009.1 |
| 20260507130141 | 11 | 359 | 3.2 | 11.3 | 0.00 | 1.02 | 0.89 | 89 | 1009.2 |
| 20260507125635 | 11 | 353 | 4.8 | 9.7 | 0.00 | 1.02 | 0.89 | 90 | 1009.2 |
| 20260507125129 | 11 | 332 | 3.2 | 9.7 | 0.00 | 1.02 | 0.89 | 90 | 1009.3 |
| 20260507124637 | 10 | 317 | 3.2 | 9.7 | 0.00 | 1.02 | 0.89 | 90 | 1009.4 |
| 20260507124632 | 10 | 328 | 3.2 | 9.7 | 0.00 | 1.02 | 0.89 | 90 | 1009.2 |
| 20260507123619 | 10 | 312 | 3.2 | 9.7 | 0.03 | 1.02 | 0.89 | 90 | 1009.4 |
| 20260507123115 | 10 | 259 | 3.2 | 9.7 | 0.03 | 1.02 | 0.89 | 90 | 1009.5 |
| 20260507122606 | 10 | 294 | 3.2 | 8.0 | 0.05 | 1.02 | 0.89 | 90 | 1009.4 |
| 20260507122107 | 10 | 316 | 1.6 | 6.4 | 0.10 | 1.02 | 0.89 | 90 | 1009.1 |
| 20260507121837 | 10 | 316 | 1.6 | 6.4 | 0.13 | 1.02 | 0.89 | 90 | 1009.1 |
| 20260507121057 | 9 | 323 | 1.6 | 6.4 | 0.13 | 1.02 | 0.89 | 90 | 1008.9 |
| 20260507120553 | 9 | 342 | 3.2 | 6.4 | 0.13 | 1.02 | 0.89 | 90 | 1009.0 |
| 20260507120038 | 9 | 342 | 0.0 | 4.8 | 0.13 | 1.02 | 0.89 | 90 | 1009.1 |
| 20260507115540 | 9 | 342 | 0.0 | 3.2 | 0.13 | 1.02 | 0.89 | 90 | 1009.0 |
| 20260507115032 | 8 | 342 | 0.0 | 3.2 | 0.13 | 1.02 | 0.89 | 90 | 1009.0 |
| 20260507114529 | 9 | 342 | 1.6 | 4.8 | 0.13 | 1.02 | 0.89 | 89 | 1009.2 |
| 20260507114021 | 9 | 342 | 1.6 | 6.4 | 0.13 | 1.02 | 0.89 | 89 | 1009.1 |
| 20260507113537 | 9 | 346 | 3.2 | 6.4 | 0.10 | 0.97 | 0.84 | 89 | 1008.7 |
| 20260507113527 | 9 | 342 | 3.2 | 6.4 | 0.10 | 0.99 | 0.86 | 89 | 1008.6 |
| 20260507112505 | 9 | 345 | 1.6 | 6.4 | 0.08 | 0.94 | 0.81 | 89 | 1009.1 |
| 20260507111953 | 9 | 323 | 0.0 | 8.0 | 0.05 | 0.91 | 0.79 | 89 | 1009.0 |
| 20260507111726 | 9 | 311 | 3.2 | 9.7 | 0.05 | 0.89 | 0.76 | 89 | 1009.4 |
| 20260507110942 | 9 | 330 | 3.2 | 11.3 | 0.05 | 0.89 | 0.76 | 89 | 1009.1 |
| 20260507110436 | 9 | 7 | 6.4 | 11.3 | 0.08 | 0.89 | 0.76 | 89 | 1008.7 |
| 20260507105936 | 9 | 346 | 3.2 | 9.7 | 0.08 | 0.89 | 0.76 | 89 | 1008.6 |
| 20260507105433 | 9 | 8 | 1.6 | 8.0 | 0.08 | 0.89 | 0.76 | 89 | 1008.7 |
| 20260507104928 | 9 | 359 | 3.2 | 9.7 | 0.08 | 0.89 | 0.76 | 89 | 1008.8 |
| 20260507104421 | 9 | 3 | 3.2 | 9.7 | 0.08 | 0.89 | 0.76 | 89 | 1008.8 |
| 20260507103920 | 9 | 345 | 4.8 | 9.7 | 0.08 | 0.89 | 0.76 | 89 | 1009.1 |
| 20260507103416 | 9 | 357 | 4.8 | 12.9 | 0.10 | 0.89 | 0.76 | 89 | 1008.9 |
| 20260507102909 | 9 | 322 | 6.4 | 12.9 | 0.08 | 0.86 | 0.74 | 90 | 1009.3 |
| 20260507102404 | 9 | 0 | 4.8 | 11.3 | 0.08 | 0.86 | 0.74 | 90 | 1009.3 |
| 20260507101905 | 10 | 283 | 4.8 | 14.5 | 0.08 | 0.86 | 0.74 | 90 | 1008.8 |
| 20260507101400 | 10 | 36 | 6.4 | 17.7 | 0.05 | 0.84 | 0.71 | 90 | 1008.7 |
| 20260507100852 | 10 | 335 | 9.7 | 17.7 | 0.05 | 0.84 | 0.71 | 90 | 1008.6 |
| 20260507100626 | 10 | 333 | 3.2 | 11.3 | 0.05 | 0.81 | 0.69 | 91 | 1008.6 |
| 20260507095843 | 10 | 339 | 6.4 | 11.3 | 0.05 | 0.81 | 0.69 | 90 | 1008.7 |
| 20260507095340 | 10 | 335 | 1.6 | 9.7 | 0.05 | 0.81 | 0.69 | 90 | 1008.3 |
| 20260507095103 | 10 | 323 | 1.6 | 9.7 | 0.08 | 0.81 | 0.69 | 90 | 1008.3 |
| 20260507094607 | 11 | 314 | 3.2 | 9.7 | 0.08 | 0.81 | 0.69 | 91 | 1008.6 |
| 20260507093827 | 11 | 337 | 3.2 | 9.7 | 0.08 | 0.79 | 0.69 | 90 | 1008.4 |
| 20260507093328 | 11 | 330 | 4.8 | 9.7 | 0.10 | 0.79 | 0.66 | 90 | 1008.3 |
| 20260507092822 | 11 | 300 | 4.8 | 14.5 | 0.15 | 0.79 | 0.66 | 90 | 1008.5 |
| 20260507092547 | 11 | 325 | 4.8 | 14.5 | 0.23 | 0.79 | 0.66 | 90 | 1008.4 |
| 20260507091810 | 11 | 359 | 4.8 | 12.9 | 0.28 | 0.79 | 0.66 | 90 | 1008.3 |
| 20260507091313 | 11 | 47 | 6.4 | 12.9 | 0.30 | 0.79 | 0.66 | 90 | 1008.0 |
| 20260507090805 | 11 | 359 | 3.2 | 9.7 | 0.33 | 0.79 | 0.66 | 90 | 1007.9 |
| 20260507090300 | 11 | 321 | 3.2 | 11.3 | 0.33 | 0.76 | 0.64 | 90 | 1008.0 |
| 20260507085754 | 11 | 326 | 4.8 | 11.3 | 0.48 | 0.76 | 0.64 | 90 | 1008.0 |
| 20260507085256 | 11 | 314 | 4.8 | 11.3 | 0.56 | 0.76 | 0.64 | 89 | 1007.9 |
| 20260507084750 | 11 | 13 | 3.2 | 11.3 | 0.61 | 0.74 | 0.61 | 89 | 1008.0 |
| 20260507084250 | 11 | 49 | 3.2 | 6.4 | 0.61 | 0.74 | 0.61 | 89 | 1008.0 |
| 20260507083743 | 11 | 48 | 3.2 | 9.7 | 0.58 | 0.71 | 0.58 | 89 | 1007.8 |
| 20260507083237 | 11 | 359 | 3.2 | 14.5 | 0.56 | 0.69 | 0.56 | 89 | 1007.9 |
| 20260507082733 | 11 | 339 | 6.4 | 14.5 | 0.51 | 0.64 | 0.51 | 88 | 1008.0 |
| 20260507082226 | 11 | 359 | 4.8 | 12.9 | 0.43 | 0.56 | 0.43 | 88 | 1007.9 |
| 20260507081719 | 12 | 354 | 4.8 | 12.9 | 0.38 | 0.51 | 0.38 | 88 | 1008.1 |
| 20260507081216 | 12 | 1 | 6.4 | 11.3 | 0.36 | 0.48 | 0.36 | 88 | 1008.2 |
| 20260507080950 | 12 | 0 | 1.6 | 11.3 | 0.33 | 0.46 | 0.33 | 88 | 1007.8 |
| 20260507080209 | 12 | 18 | 3.2 | 12.9 | 0.30 | 0.43 | 0.30 | 88 | 1007.8 |
| 20260507075951 | 13 | 58 | 6.4 | 12.9 | 0.15 | 0.28 | 0.15 | 87 | 1007.9 |
| 20260507075158 | 13 | 297 | 6.4 | 16.1 | 0.05 | 0.18 | 0.08 | 87 | 1007.8 |
| 20260507074652 | 13 | 40 | 6.4 | 16.1 | 0.00 | 0.13 | 0.00 | 88 | 1007.4 |
| 20260507074146 | 13 | 40 | 4.8 | 12.9 | 0.00 | 0.13 | 0.00 | 89 | 1006.7 |
| 20260507073642 | 13 | 26 | 4.8 | 9.7 | 0.00 | 0.13 | 0.00 | 89 | 1006.6 |
| 20260507073410 | 13 | 29 | 1.6 | 8.0 | 0.00 | 0.13 | 0.00 | 90 | 1006.6 |
| 20260507072635 | 13 | 334 | 4.8 | 8.0 | 0.00 | 0.13 | 0.00 | 90 | 1006.7 |
| 20260507072129 | 13 | 350 | 1.6 | 8.0 | 0.00 | 0.13 | 0.00 | 90 | 1006.7 |
| 20260507071857 | 13 | 34 | 4.8 | 8.0 | 0.00 | 0.13 | 0.00 | 91 | 1006.6 |
| 20260507071125 | 13 | 50 | 3.2 | 6.4 | 0.00 | 0.13 | 0.00 | 91 | 1006.8 |
| 20260507070621 | 13 | 50 | 1.6 | 6.4 | 0.00 | 0.13 | 0.00 | 91 | 1006.8 |
| 20260507070114 | 13 | 51 | 1.6 | 9.7 | 0.00 | 0.13 | 0.00 | 91 | 1006.6 |
| 20260507065611 | 14 | 51 | 1.6 | 9.7 | 0.00 | 0.13 | 0.00 | 91 | 1006.4 |
| 20260507065104 | 14 | 248 | 0.0 | 4.8 | 0.00 | 0.13 | 0.00 | 91 | 1006.5 |
| 20260507064600 | 14 | 232 | 0.0 | 0.0 | 0.00 | 0.13 | 0.00 | 91 | 1006.6 |
| 20260507064100 | 14 | 232 | 0.0 | 0.0 | 0.00 | 0.13 | 0.00 | 91 | 1006.7 |
| 20260507063554 | 14 | 232 | 0.0 | 0.0 | 0.00 | 0.13 | 0.00 | 91 | 1006.7 |
| 20260507063318 | 14 | 232 | 0.0 | 0.0 | 0.00 | 0.13 | 0.00 | 91 | 1006.7 |
| 20260507062543 | 14 | 232 | 0.0 | 0.0 | 0.00 | 0.13 | 0.00 | 91 | 1006.8 |
| 20260507062044 | 14 | 232 | 0.0 | 3.2 | 0.00 | 0.13 | 0.00 | 91 | 1006.9 |
| 20260507061550 | 14 | 232 | 0.0 | 0.0 | 0.00 | 0.13 | 0.00 | 91 | 1007.0 |
| 20260507061543 | 14 | 232 | 0.0 | 3.2 | 0.00 | 0.13 | 0.00 | 91 | 1006.8 |
| 20260507060531 | 14 | 232 | 0.0 | 0.0 | 0.00 | 0.13 | 0.00 | 91 | 1007.1 |
| 20260507060027 | 14 | 232 | 0.0 | 0.0 | 0.00 | 0.13 | 0.00 | 91 | 1007.2 |
| 20260507055513 | 14 | 232 | 0.0 | 0.0 | 0.00 | 0.13 | 0.00 | 91 | 1006.9 |
| 20260507055009 | 14 | 232 | 0.0 | 6.4 | 0.00 | 0.13 | 0.00 | 91 | 1007.0 |
| 20260507054456 | 14 | 232 | 1.6 | 6.4 | 0.00 | 0.13 | 0.00 | 91 | 1007.0 |
| 20260507054223 | 14 | 230 | 3.2 | 6.4 | 0.00 | 0.13 | 0.00 | 91 | 1007.2 |
| 20260507053451 | 14 | 230 | 1.6 | 4.8 | 0.00 | 0.13 | 0.00 | 91 | 1007.2 |
| 20260507052938 | 14 | 230 | 3.2 | 4.8 | 0.00 | 0.13 | 0.00 | 91 | 1007.0 |
| 20260507052430 | 14 | 230 | 1.6 | 4.8 | 0.00 | 0.13 | 0.00 | 91 | 1007.1 |
| 20260507051925 | 14 | 225 | 3.2 | 6.4 | 0.00 | 0.13 | 0.00 | 91 | 1007.3 |
| 20260507051420 | 14 | 271 | 3.2 | 6.4 | 0.00 | 0.13 | 0.00 | 91 | 1007.4 |
| 20260507050915 | 14 | 274 | 3.2 | 6.4 | 0.00 | 0.13 | 0.00 | 91 | 1007.4 |
| 20260507050407 | 14 | 256 | 3.2 | 6.4 | 0.00 | 0.13 | 0.00 | 91 | 1007.4 |